Location: Baarle
(51.0356°N, 3.6253°E)
Time: 13:51:53
(UTC+00:00)

Daily predictions for brighter satellites

Satellite Brightness Start Highest point End
(mag) Time Altitude Azimuth Time Altitude Azimuth Time Altitude Azimuth
Meteor 1-27 Rocket 4.2 20:22:16 10° SSE 20:27:24 42° E 20:32:39 10° NNE
Cosmos 1340 Rocket 3.7 20:26:53 10° SSE 20:30:25 32° E 20:33:59 10° NNE
IRS-1A Rocket 4.3 20:26:11 10° SSE 20:31:46 87° ENE 20:37:19 10° NNW
SPOT 5 2.9 20:31:45 10° S 20:36:13 72° WSW 20:40:34 10° NNW
Cosmos 1151 Rocket 4.0 20:33:29 10° SSE 20:37:16 30° E 20:41:04 10° NNE
Ariane Rocket 3.2 20:34:46 10° SSE 20:39:46 62° ENE 20:44:48 10° N
Cosmos 1726 2.9 20:40:42 10° NNW 20:43:40 40° W 20:46:36 10° SSW
USA 234 3.9 20:39:44 10° ENE 20:46:11 61° NNW 20:52:36 10° W
Cosmos 1833 Rocket 4.4 20:44:08 10° SE 20:47:02 14° E 20:49:57 10° ENE
SPOT 3 Rocket 3.7 20:42:33 10° SSE 20:47:38 66° ENE 20:52:45 10° N
Cosmos 1818 4.4 20:44:58 10° S 20:49:39 30° ESE 20:54:23 10° NE
IRS-1C Rocket 4.5 20:45:07 10° S 20:50:20 65° WSW 20:55:35 10° NNW
Cosmos 2279 Rocket 4.4 20:44:25 10° NNW 20:50:33 66° W 20:56:41 10° S
Cosmos 2369 Rocket 4.4 20:47:43 10° WNW 20:51:33 19° W 20:55:23 10° SW
Cosmos 1805 3.8 20:48:04 10° N 20:51:38 41° ENE 20:54:54 11° SE
Cosmos 1656 4.0 20:46:37 10° NNW 20:52:02 58° NE 20:57:19 11° SE
Nadezhda 4 Rocket 4.2 20:47:49 10° S 20:53:53 59° E 21:00:03 10° NNE
Okean-O 4.2 20:50:28 10° SSW 20:54:26 33° W 20:58:27 10° NNW
Cosmos 1603 3.8 20:48:49 10° SSW 20:54:30 84° WNW 21:00:17 10° NNE
USA 245 2.4 20:52:15 10° S 20:54:32 65° WSW 20:57:10 10° NNW
ERS-1 Rocket 3.1 20:50:06 10° S 20:55:07 77° WSW 21:00:11 10° NNW
Okean 1 3.2 20:51:46 10° S 20:55:38 89° E 20:59:33 10° N
Cosmos 614 Rocket 4.3 20:55:15 10° S 21:00:13 48° ESE 21:05:14 10° NNE
Cosmos 1500 Rocket 3.8 20:56:39 10° NNW 21:00:57 68° W 21:05:12 10° S
Cosmos 44 Rocket 4.3 20:56:31 10° NNW 21:01:16 42° NE 21:05:52 10° ESE
Cosmos 1975 3.4 20:59:06 10° N 21:02:54 43° ENE 21:06:07 13° SE
SL-8 R/B 3.7 21:05:47 10° W 21:10:30 65° S 21:15:13 10° ESE
USA 59 Rocket 0.5 21:06:46 10° NW 21:10:33 56° SW 21:15:04 13° SSE
Cosmos 1805 Rocket 3.9 21:07:57 10° NNW 21:12:19 64° W 21:16:41 10° S
Sich 1 3.5 21:09:01 10° NNW 21:13:21 61° W 21:17:39 10° S
NOSS 2-1 (E) 4.0 21:09:35 10° NW 21:13:23 54° SW 21:17:49 14° SSE
Meteor 1-19 Rocket 4.3 21:08:00 10° S 21:13:51 89° W 21:19:32 10° NNE
Cosmos 1536 4.4 21:12:35 10° NNW 21:16:05 31° W 21:19:35 10° SSW
Cosmos 1633 Rocket 3.6 21:12:07 10° N 21:16:23 45° ENE 21:19:46 15° SE
Cosmos 1666 Rocket 3.7 21:17:08 10° N 21:21:24 59° ENE 21:24:43 16° SSE
Spot 1 4.1 21:20:13 10° NNE 21:24:18 58° ESE 21:28:15 11° S
NOSS 2-1 (D) 4.4 21:22:43 10° WNW 21:26:24 40° SW 21:30:23 14° SSE
Terra 2.6 21:22:52 10° S 21:27:23 46° W 21:31:57 10° NNW
Cosmos 2026 Rocket 4.1 21:26:46 12° S 21:32:33 61° E 21:38:39 10° NNE
Cosmos 1992 Rocket 4.1 21:27:46 10° NNW 21:33:00 72° WSW 21:37:11 16° SSE
Cosmos 1697 Rocket 3.0 21:37:11 10° NNW 21:42:47 61° NE 21:47:10 16° SE
NOSS 3-3 (A) 3.8 21:42:44 10° SSW 21:48:08 64° SE 21:54:30 10° NE
Cosmos 1340 4.4 21:45:48 10° NW 21:48:32 22° W 21:51:13 10° SW
USA 281 3.3 21:44:56 16° SSE 21:50:18 72° WSW 21:56:56 10° NNW
MOS 1 Rocket 4.5 21:45:42 10° SSW 21:50:39 44° W 21:55:50 10° NNW
Cosmos 1980 Rocket 3.2 21:46:59 10° NNW 21:52:23 40° NE 21:57:19 12° ESE
Orbus 7S? 4.1 21:48:24 10° SSW 21:53:14 31° SE 21:56:07 10° ENE
Cosmos 1707 4.2 21:52:01 17° ESE 21:53:17 20° E 21:56:02 10° NE
ALOS 2 4.4 21:51:27 11° ESE 21:54:35 22° ENE 21:57:59 10° N
Lacrosse 4 Rocket 2.4 21:52:27 10° NW 21:56:13 35° WSW 21:58:43 18° S
Lacrosse 5 rocket 2.2 21:53:24 10° WNW 21:57:32 48° NNE 22:01:31 10° E
Cosmos 1140 Rocket 4.2 21:55:40 20° SSE 21:58:33 35° ESE 22:03:16 10° NE
NOSS 3-4 (A) 3.9 21:56:37 10° NW 22:03:18 77° NE 22:10:02 14° SE
NOSS 3-4 (C) 3.9 21:56:43 10° NW 22:03:24 77° NE 22:10:09 14° SE
Meteor 2-4 Rocket 4.0 21:58:24 10° SSW 22:04:19 77° WNW 22:10:17 10° N
H-2A R/B 3.3 22:02:00 20° SE 22:04:33 43° ENE 22:08:38 10° N
Cosmos 1066 Rocket 4.4 22:00:44 17° S 22:05:12 68° E 22:11:03 10° NNE
Cosmos 1553 Rocket 4.0 21:59:52 10° N 22:05:57 74° ENE 22:10:15 21° SSE
Cosmos 1626 2.0 22:06:08 20° SSW 22:08:11 65° WNW 22:11:25 10° N
BREEZE-M DEB (TANK) 1.8 22:06:50 10° W 22:08:53 57° S 22:10:18 23° ESE
Cosmos 1842 3.8 22:07:25 26° SE 22:08:54 38° E 22:12:20 10° NNE
Spot 4 4.5 22:12:43 20° SE 22:15:42 46° ENE 22:20:16 10° N
BREEZE-M DEB (TANK) 4.3 22:11:20 10° SSW 22:15:42 45° SE 22:31:08 10° ENE
Cosmos 2369 4.5 22:12:09 10° NNW 22:17:40 47° NE 22:22:17 15° ESE
CZ-2C R/B 3.6 22:14:38 10° NNE 22:19:07 67° ESE 22:21:42 24° S
Landsat 5 4.5 22:16:43 10° N 22:20:16 39° WNW 22:23:51 10° SW
KORONAS-FOTON 4.1 22:18:54 30° SSE 22:20:20 47° E 22:23:56 10° NNE
ARIANE 5 R/B 2.5 22:18:32 26° SSE 22:20:57 87° W 22:25:17 10° NNW
NOSS 3-3 (C) 3.8 22:15:42 10° SW 22:21:13 89° NW 22:27:51 10° NE
Cosmos 1674 2.5 22:21:29 32° SSE 22:22:53 63° E 22:26:22 10° NNE
Cosmos 2285 Rocket 4.3 22:21:35 22° S 22:25:32 50° ESE 22:31:39 10° NNE
Cosmos 1092 Rocket 4.5 22:21:59 10° SSW 22:28:10 60° WNW 22:34:28 10° N
Cosmos 1766 3.8 22:25:06 10° NNW 22:28:44 48° W 22:30:40 24° SSW
USA 234 4.0 22:22:24 10° E 22:28:45 54° N 22:35:06 10° WNW
Cosmos 1763 Rocket 4.1 22:24:46 10° NNW 22:29:59 52° ENE 22:33:32 19° SE
Cosmos 1833 Rocket 2.6 22:25:16 15° SSW 22:30:01 79° ESE 22:35:40 10° NNE
Cosmos 540 Rocket 4.4 22:25:40 10° NNW 22:30:33 40° NE 22:34:20 16° ESE
SL-16 R/B 4.0 22:25:54 10° NNW 22:30:37 26° NE 22:35:19 10° E
Cosmos 1328 Rocket 4.3 22:27:53 14° SSW 22:31:25 48° WNW 22:35:37 10° N
Cosmos 1818 4.1 22:27:30 10° SW 22:32:55 63° NW 22:38:23 10° NE
H-2A R/B 4.0 22:33:32 10° NE 22:36:13 16° E 22:37:41 14° ESE
Cosmos 407 Rocket 3.8 22:34:45 26° SSE 22:37:29 50° ESE 22:42:32 10° NNE
Cosmos 724 4.3 22:34:15 18° SSW 22:38:39 60° ESE 22:44:24 10° NE
Cosmos 1515 Rocket 3.6 22:38:30 24° SSW 22:41:02 78° WNW 22:45:22 10° N
Cosmos 2082 Rocket 3.1 22:38:49 24° SSE 22:41:12 33° ESE 22:46:15 10° NE
Cosmos 1470 2.6 22:38:32 10° NNW 22:42:14 72° W 22:43:42 34° S
Cosmos 2266 Rocket 4.2 22:38:37 24° SSE 22:42:23 60° E 22:48:35 10° NNE
Cosmos 44 Rocket 3.9 22:38:08 10° NW 22:42:48 43° WSW 22:44:56 27° S
BREEZE-M DEB (TANK) 3.5 22:42:14 33° S 22:43:02 39° SE 22:49:02 10° ENE
Cosmos 1733 Rocket 4.4 22:41:54 10° N 22:45:45 30° ENE 22:48:08 18° ESE
OPS 6432 4.3 22:44:57 10° NW 22:48:06 67° NE 22:49:16 34° ESE
Meteor 1-13 Rocket 4.4 22:46:34 25° S 22:50:02 64° E 22:55:50 10° NNE
Cosmos 1869 Rocket 3.5 22:47:25 10° N 22:51:50 81° E 22:53:51 32° SSE
SL-8 R/B 4.2 22:48:09 10° W 22:52:34 39° SSW 22:54:05 30° SSE
MINOTAUR 4 R/B 4.4 22:50:05 10° N 22:52:57 46° WNW 22:54:07 28° SW
ATLAS 2AS CENTAUR R/B 4.4 22:53:12 10° NW 22:59:30 34° NNE 23:05:34 10° E
Cosmos 2228 Rocket 4.1 22:58:02 25° SE 22:59:48 34° E 23:03:55 10° NNE
Meteor 2-10 Rocket 4.0 22:54:11 10° N 22:59:58 61° ENE 23:03:24 24° SSE
Cosmos 1655 Rocket 4.3 22:57:28 25° SSE 23:01:11 59° E 23:07:27 10° NNE
GEOS 3 Rocket 3.8 22:56:26 10° NE 23:01:38 73° NW 23:06:44 10° SW
Cosmos 2251 Rocket 3.5 22:59:14 27° S 23:02:09 71° ESE 23:07:26 10° NNE
PSLV R/B 4.4 23:00:41 10° N 23:04:40 55° WNW 23:07:00 23° SW
Cosmos 1908 3.3 23:01:55 10° NNW 23:05:25 55° W 23:06:34 36° SSW
Meteor 1-22 Rocket 4.1 23:00:58 10° NNW 23:06:21 87° ENE 23:09:19 28° SSE
Cosmos 1346 Rocket 3.8 23:08:44 10° N 23:12:22 36° ENE 23:14:08 23° ESE
Cosmos 2278 4.3 23:10:49 10° NNW 23:16:27 53° NE 23:21:03 15° SE
GP-B 3.4 23:12:23 10° N 23:16:45 56° E 23:18:36 31° SSE
Cosmos 1400 Rocket 3.1 23:15:48 36° SSE 23:17:05 52° E 23:20:57 10° NNE
Meteor 1-15 Rocket 4.2 23:13:36 10° NNW 23:19:14 76° W 23:22:13 29° S
Cosmos 1697 Rocket 4.0 23:21:42 10° NW 23:26:22 27° WSW 23:28:53 20° SW
Cosmos 2322 Rocket 3.5 23:21:12 10° NNW 23:26:24 36° NE 23:31:37 10° ESE
Cosmos 1862 Rocket 4.1 23:26:10 30° SE 23:27:48 45° E 23:31:58 10° NNE
Cosmos 1707 3.8 23:26:18 21° WSW 23:28:05 34° WNW 23:31:27 10° N
ALOS 2 3.0 23:28:50 32° SSW 23:30:37 53° W 23:34:56 10° NNW
Cosmos 1356 Rocket 4.0 23:29:58 31° SE 23:31:21 43° E 23:35:19 10° NNE
USA 267 4.1 23:28:02 10° ENE 23:33:38 30° SE 23:35:51 25° SSE
Cosmos 1607 4.4 23:28:06 10° SW 23:34:31 64° NW 23:41:01 10° NE
In-Cosmos 22 4.4 23:31:11 24° SSW 23:34:43 70° WNW 23:40:25 10° N
PSLV R/B 3.6 23:30:36 10° NNE 23:35:04 68° ESE 23:36:50 35° S
Cosmos 1300 2.4 23:31:40 10° N 23:35:15 86° W 23:36:14 46° S
Cosmos 1441 Rocket 4.1 23:32:05 10° NNW 23:35:22 34° W 23:36:17 29° SW
Lacrosse 5 rocket 1.4 23:31:53 10° WNW 23:35:59 54° SW 23:37:07 39° SSE
Cosmos 1980 Rocket 2.7 23:31:03 10° NW 23:36:28 45° WSW 23:39:03 28° SSW
Cosmos 2333 Rocket 3.7 23:33:48 10° NNW 23:39:00 34° NE 23:44:11 10° ESE
H-2A R/B 4.1 23:37:59 19° SW 23:39:40 24° W 23:43:11 10° NW
Meteor 1-4 Rocket 4.1 23:41:04 17° E 23:41:25 17° E 23:43:27 10° NE
Cosmos 1953 3.4 23:39:54 10° N 23:43:32 35° ENE 23:45:27 22° SE
SL-14 R/B 3.1 23:48:27 40° SSW 23:49:45 82° W 23:53:36 10° N
Cosmos 1707 Rocket 3.5 23:49:21 34° S 23:51:15 88° W 23:55:45 10° N
Cosmos 841 Rocket 3.5 23:47:29 10° NNW 23:52:45 79° ENE 23:55:58 24° SSE
RESURS DK-1 4.2 23:49:46 10° NNW 23:53:22 29° NE 23:56:56 10° ESE
